Project,Study,Ord_Occ,Event_Num,Cast_ID,Date_Time_UTC,Date_Time_PST,Lat_Dec,Lon_Dec,Sta_ID,Line,Sta,Depth,Pressure,PrQ,Temp1,Temp1Q,Temp2,Temp2Q,TempAve,Salt1,Salt1Q,Salt1_Corr,Salt2,Salt2Q,Salt2_Corr,SaltAve_Corr,Ox1,Ox1Q,Ox1_CruiseCorr,Ox1_StaCorr,Ox2,Ox2Q,Ox2_CruiseCorr,Ox2_StaCorr,OxAve_StaCorr,Ox1uM,Ox1uM_CruiseCorr,Ox1uM_StaCorr,Ox2uM,Ox2uM_CruiseCorr,Ox2uM_StaCorr,OxAveuM_StaCorr,FluorV,FluorQ,EstChl_CruiseCorr,EstChl_StaCorr,ISUSV,ISUSQ,EstNO3_CruiseCorr,EstNO3_StaCorr,SigThetaTS1,SigThetaTS1Q,SigThetaTS2,SigThetaTS2Q,BAT,XMiss,TransQ,pH,pHQ,SPAR,SPARQ,PAR,PARQ,PoT1,PoT2,DynHt,SVA,OxSat1,OxSat2,BTL_Depth,BTL_Temp,SaltB,OxB,OxBuM,Chl-a,Phaeo,NO3,NO2,NH4,PO4,SIL
CalCOFI,2007SR,050,52,2007_050u,22-Jul-2020 20:06:04,22-Jul-2020 12:06:04,32.91208,-122.12822,083.3 080.0,083.3,080.0,516.000,520.313,,5.6814,,5.6784,,5.6799,34.2458,,34.2460,34.2476,,34.2492,34.2476,0.3524,,0.3505,0.3952,2.1345,,1.1545,0.7632,0.5792,15.323,15.5076,12.7860,92.819,,27.3161,20.0511,0.0333,,,,-99.0,,-99.0,-99.0,27.0018,,27.0035,,0.6361,85.2979,,7.520,,2.2737E+03,,1.4459E-01,,5.6374,5.6344,0.9573,,5.037,30.511,516,5.681,34.2512,0.411,17.94,,,40.33,0.00,0.00,3.16,81.88
CalCOFI,2007SR,050,52,2007_050u,22-Jul-2020 20:06:05,22-Jul-2020 12:06:05,32.91208,-122.12822,083.3 080.0,083.3,080.0,515.000,519.304,,5.6999,,5.7021,,5.7010,34.2454,,34.2456,34.2475,,34.2491,34.2474,0.3521,,0.3502,0.3948,2.1234,,1.1280,0.7362,0.5655,15.313,15.4971,12.7760,92.339,,26.1797,19.4779,0.0323,,,,-99.0,,-99.0,-99.0,26.9992,,27.0005,,0.6367,85.2852,,7.520,,2.2540E+03,,1.4415E-01,,5.6559,5.6581,0.9573,,5.036,30.369,,,,,,,,,,,,
CalCOFI,2007SR,050,52,2007_050u,22-Jul-2020 20:06:07,22-Jul-2020 12:06:07,32.91208,-122.12822,083.3 080.0,083.3,080.0,514.000,518.294,,5.7021,,5.7039,,5.7030,34.2455,,34.2457,34.2469,,34.2485,34.2471,0.3521,,0.3502,0.3948,2.1258,,1.1337,0.7421,0.5685,15.310,15.4940,12.7730,92.440,,26.4188,19.5959,0.0332,,,,-99.0,,-99.0,-99.0,26.9990,,26.9998,,0.6363,85.2945,,7.520,,2.2722E+03,,1.4402E-01,,5.6581,5.6600,0.9573,,5.035,30.404,,,,,,,,,,,,
CalCOFI,2007SR,050,52,2007_050u,22-Jul-2020 20:06:10,22-Jul-2020 12:06:10,32.91208,-122.12823,083.3 080.0,083.3,080.0,513.000,517.285,,5.7015,,5.7015,,5.7015,34.2458,,34.2460,34.2475,,34.2491,34.2476,0.3520,,0.3501,0.3947,2.1219,,1.1244,0.7326,0.5637,15.309,15.4930,12.7720,92.273,,26.0234,19.3977,0.0324,,,,-99.0,,-99.0,-99.0,26.9993,,27.0006,,0.6364,85.2912,,7.520,,2.2551E+03,,1.3688E-01,,5.6576,5.6577,0.9573,,5.035,30.347,,,,,,,,,,,,
CalCOFI,2007SR,050,52,2007_050u,22-Jul-2020 20:06:13,22-Jul-2020 12:06:13,32.91208,-122.12822,083.3 080.0,083.3,080.0,512.000,516.275,,5.7100,,5.7094,,5.7097,34.2465,,34.2467,34.2483,,34.2499,34.2483,0.3554,,0.3537,0.3983,2.1186,,1.1165,0.7246,0.5615,15.457,15.6475,12.9198,92.129,,25.6825,19.3012,0.0325,,,,-99.0,,-99.0,-99.0,26.9988,,27.0003,,0.6364,85.2913,,7.519,,2.2724E+03,,1.3560E-01,,5.6662,5.6656,0.9573,,5.084,30.306,,,,,,,,,,,,
CalCOFI,2007SR,050,52,2007_050u,22-Jul-2020 20:06:13,22-Jul-2020 12:06:13,32.91208,-122.12822,083.3 080.0,083.3,080.0,511.000,515.265,,5.7212,,5.7223,,5.7218,34.2464,,34.2466,34.2479,,34.2495,34.2481,0.3593,,0.3577,0.4023,2.1089,,1.0934,0.7010,0.5517,15.624,15.8218,13.0866,91.709,,24.6881,18.8874,0.0324,,,,-99.0,,-99.0,-99.0,26.9973,,26.9984,,0.6364,85.2913,,7.519,,2.2754E+03,,1.3189E-01,,5.6775,5.6785,0.9573,,5.141,30.177,,,,,,,,,,,,
CalCOFI,2007SR,050,52,2007_050u,22-Jul-2020 20:06:14,22-Jul-2020 12:06:14,32.91208,-122.12822,083.3 080.0,083.3,080.0,510.000,514.256,,5.7285,,5.7281,,5.7283,34.2451,,34.2453,34.2467,,34.2483,34.2468,0.3572,,0.3555,0.4001,2.1138,,1.1051,0.7129,0.5565,15.534,15.7278,12.9967,91.922,,25.1924,19.0946,0.0321,,,,-99.0,,-99.0,-99.0,26.9954,,26.9967,,0.6364,85.2913,,7.519,,2.2764E+03,,1.4133E-01,,5.6848,5.6844,0.9573,,5.112,30.251,,,,,,,,,,,,
CalCOFI,2007SR,050,52,2007_050u,22-Jul-2020 20:06:15,22-Jul-2020 12:06:15,32.91208,-122.12822,083.3 080.0,083.3,080.0,509.000,513.246,,5.7319,,5.7329,,5.7324,34.2460,,34.2462,34.2475,,34.2491,34.2477,0.3603,,0.3588,0.4034,2.1148,,1.1075,0.7153,0.5594,15.669,15.8688,13.1315,91.965,,25.2942,19.2129,0.0327,,,,-99.0,,-99.0,-99.0,26.9956,,26.9968,,0.6364,85.2913,,7.519,,2.2761E+03,,1.3083E-01,,5.6883,5.6893,0.9573,,5.157,30.268,,,,,,,,,,,,
CalCOFI,2007SR,050,52,2007_050u,22-Jul-2020 20:06:16,22-Jul-2020 12:06:16,32.91208,-122.12822,083.3 080.0,083.3,080.0,508.000,512.236,,5.7413,,5.7414,,5.7414,34.2460,,34.2462,34.2477,,34.2493,34.2478,0.3656,,0.3643,0.4089,2.1141,,1.1058,0.7136,0.5613,15.898,16.1078,13.3602,91.933,,25.2184,19.2893,0.0320,,,,-99.0,,-99.0,-99.0,26.9945,,26.9958,,0.6364,85.2913,,7.519,,2.2776E+03,,1.3252E-01,,5.6977,5.6978,0.9573,,5.234,30.264,,,,,,,,,,,,
CalCOFI,2007SR,050,52,2007_050u,22-Jul-2020 20:06:17,22-Jul-2020 12:06:17,32.91208,-122.12822,083.3 080.0,083.3,080.0,507.000,511.227,,5.7343,,5.7350,,5.7347,34.2420,,34.2422,34.2432,,34.2448,34.2435,0.3606,,0.3591,0.4037,2.1122,,1.1013,0.7090,0.5564,15.680,15.8803,13.1425,91.851,,25.0243,19.0834,0.0328,,,,-99.0,,-99.0,-99.0,26.9922,,26.9931,,0.6364,85.2913,,7.519,,2.2775E+03,,1.2928E-01,,5.6909,5.6915,0.9573,,5.160,30.231,,,,,,,,,,,,
CalCOFI,2007SR,050,52,2007_050u,22-Jul-2020 20:06:18,22-Jul-2020 12:06:18,32.91208,-122.12822,083.3 080.0,083.3,080.0,506.000,510.217,,5.7313,,5.7312,,5.7313,34.2406,,34.2408,34.2420,,34.2436,34.2422,0.3631,,0.3617,0.4063,2.1025,,1.0781,0.6854,0.5459,15.791,15.9961,13.2533,91.429,,24.0251,18.6392,0.0331,,,,-99.0,,-99.0,-99.0,26.9915,,26.9925,,0.6364,85.2913,,7.519,,2.2783E+03,,1.3075E-01,,5.6880,5.6878,0.9573,,5.197,30.089,,,,,,,,,,,,
CalCOFI,2007SR,050,52,2007_050u,22-Jul-2020 20:06:19,22-Jul-2020 12:06:19,32.91208,-122.12822,083.3 080.0,083.3,080.0,505.000,509.208,,5.7402,,5.7410,,5.7406,34.2407,,34.2409,34.2424,,34.2440,34.2425,0.3671,,0.3659,0.4104,2.1053,,1.0848,0.6922,0.5513,15.962,16.1746,13.4241,91.551,,24.3140,18.8691,0.0327,,,,-99.0,,-99.0,-99.0,26.9904,,26.9916,,0.6364,85.2913,,7.519,,2.2788E+03,,1.3529E-01,,5.6969,5.6977,0.9573,,5.254,30.137,,,,,,,,,,,,
CalCOFI,2007SR,050,52,2007_050u,22-Jul-2020 20:06:20,22-Jul-2020 12:06:20,32.91208,-122.12822,083.3 080.0,083.3,080.0,504.000,508.198,,5.7472,,5.7469,,5.7471,34.2411,,34.2413,34.2428,,34.2444,34.2429,0.3623,,0.3609,0.4054,2.1073,,1.0896,0.6971,0.5513,15.757,15.9606,13.2194,91.637,,24.5176,18.8685,0.0329,,,,-99.0,,-99.0,-99.0,26.9899,,26.9912,,0.6364,85.2921,,7.519,,2.2734E+03,,1.3082E-01,,5.7040,5.7036,0.9573,,5.187,30.169,,,,,,,,,,,,
CalCOFI,2007SR,050,52,2007_050u,22-Jul-2020 20:06:21,22-Jul-2020 12:06:21,32.91208,-122.12822,083.3 080.0,083.3,080.0,503.000,507.189,,5.7546,,5.7546,,5.7546,34.2415,,34.2417,34.2431,,34.2447,34.2432,0.3639,,0.3625,0.4071,2.1043,,1.0824,0.6898,0.5485,15.824,16.0306,13.2863,91.510,,24.2169,18.7516,0.0333,,,,-99.0,,-99.0,-99.0,26.9893,,26.9906,,0.6364,85.2913,,7.519,,2.2770E+03,,1.2736E-01,,5.7114,5.7114,0.9573,,5.210,30.133,,,,,,,,,,,,
CalCOFI,2007SR,050,52,2007_050u,22-Jul-2020 20:06:22,22-Jul-2020 12:06:22,32.91208,-122.12822,083.3 080.0,083.3,080.0,502.000,506.179,,5.7570,,5.7571,,5.7571,34.2415,,34.2417,34.2428,,34.2444,34.2431,0.3686,,0.3675,0.4120,2.0957,,1.0619,0.6689,0.5405,16.030,16.2456,13.4920,91.136,,23.3314,18.4117,0.0329,,,,-99.0,,-99.0,-99.0,26.9890,,26.9900,,0.6363,85.2925,,7.519,,2.2794E+03,,1.2591E-01,,5.7139,5.7140,0.9573,,5.279,30.011,,,,,,,,,,,,
CalCOFI,2007SR,050,52,2007_050u,22-Jul-2020 20:06:23,22-Jul-2020 12:06:23,32.91208,-122.12822,083.3 080.0,083.3,080.0,501.000,505.170,,5.7621,,5.7628,,5.7625,34.2420,,34.2422,34.2435,,34.2451,34.2437,0.3751,,0.3742,0.4187,2.0967,,1.0643,0.6713,0.5450,16.312,16.5400,13.7736,91.176,,23.4261,18.5999,0.0316,,,,-99.0,,-99.0,-99.0,26.9887,,26.9899,,0.6363,85.2936,,7.519,,2.2781E+03,,1.2945E-01,,5.7191,5.7198,0.9573,,5.372,30.028,,,,,,,,,,,,
CalCOFI,2007SR,050,52,2007_050u,22-Jul-2020 20:06:24,22-Jul-2020 12:06:24,32.91208,-122.12822,083.3 080.0,083.3,080.0,500.000,504.160,,5.7732,,5.7730,,5.7731,34.2422,,34.2424,34.2439,,34.2455,34.2440,0.3751,,0.3742,0.4187,2.0989,,1.0695,0.6767,0.5477,16.310,16.5379,13.7716,91.273,,23.6558,18.7137,0.0319,,,,-99.0,,-99.0,-99.0,26.9875,,26.9889,,0.6364,85.2913,,7.519,,2.2794E+03,,1.3604E-01,,5.7302,5.7300,0.9573,,5.373,30.068,,,,,,,,,,,,
CalCOFI,2007SR,050,52,2007_050u,22-Jul-2020 20:06:25,22-Jul-2020 12:06:25,32.91208,-122.12822,083.3 080.0,083.3,080.0,499.000,503.151,,5.7799,,5.7800,,5.7800,34.2378,,34.2380,34.2397,,34.2413,34.2397,0.3751,,0.3742,0.4187,2.0990,,1.0697,0.6769,0.5478,16.311,16.5390,13.7726,91.277,,23.6652,18.7189,0.0323,,,,-99.0,,-99.0,-99.0,26.9832,,26.9847,,0.6364,85.2913,,7.519,,2.2794E+03,,1.2867E-01,,5.7370,5.7371,0.9573,,5.374,30.073,,,,,,,,,,,,
CalCOFI,2007SR,050,52,2007_050u,22-Jul-2020 20:06:26,22-Jul-2020 12:06:26,32.91208,-122.12822,083.3 080.0,083.3,080.0,498.000,502.141,,5.7778,,5.7769,,5.7774,34.2373,,34.2375,34.2379,,34.2395,34.2385,0.3794,,0.3787,0.4232,2.0989,,1.0695,0.6767,0.5500,16.500,16.7363,13.9613,91.273,,23.6558,18.8086,0.0330,,,,-99.0,,-99.0,-99.0,26.9830,,26.9836,,0.6363,85.2931,,7.519,,2.2822E+03,,1.2367E-01,,5.7350,5.7341,0.9573,,5.436,30.069,,,,,,,,,,,,
CalCOFI,2007SR,050,52,2007_050u,22-Jul-2020 20:06:28,22-Jul-2020 12:06:28,32.91208,-122.12822,083.3 080.0,083.3,080.0,497.000,501.131,,5.7672,,5.7646,,5.7659,34.2341,,34.2343,34.2343,,34.2359,34.2351,0.3870,,0.3867,0.4311,2.0928,,1.0549,0.6618,0.5465,16.831,17.0818,14.2919,91.007,,23.0260,18.6590,0.0328,,,,-99.0,,-99.0,-99.0,26.9818,,26.9823,,0.6364,85.2904,,7.519,,2.2803E+03,,1.2099E-01,,5.7245,5.7220,0.9573,,5.543,29.972,,,,,,,,,,,,
CalCOFI,2007SR,050,52,2007_050u,22-Jul-2020 20:06:29,22-Jul-2020 12:06:29,32.91208,-122.12822,083.3 080.0,083.3,080.0,496.000,500.122,,5.7628,,5.7633,,5.7631,34.2310,,34.2312,34.2324,,34.2340,34.2326,0.3899,,0.3897,0.4341,2.0897,,1.0475,0.6543,0.5442,16.953,17.2091,14.4137,90.874,,22.7111,18.5624,0.0331,,,,-99.0,,-99.0,-99.0,26.9799,,26.9809,,0.6354,85.3118,,7.519,,2.2789E+03,,1.2700E-01,,5.7202,5.7208,0.9573,,5.583,29.927,,,,,,,,,,,,
CalCOFI,2007SR,050,52,2007_050u,22-Jul-2020 20:06:30,22-Jul-2020 12:06:30,32.91208,-122.12822,083.3 080.0,083.3,080.0,495.000,499.112,,5.7757,,5.7751,,5.7754,34.2320,,34.2322,34.2334,,34.2350,34.2336,0.3954,,0.3955,0.4398,2.0916,,1.0521,0.6589,0.5494,17.194,17.4607,14.6543,90.957,,22.9076,18.7810,0.0325,,,,-99.0,,-99.0,-99.0,26.9791,,26.9802,,0.6364,85.2912,,7.519,,2.2804E+03,,1.2816E-01,,5.7332,5.7326,0.9573,,5.664,29.963,,,,,,,,,,,,
CalCOFI,2007SR,050,52,2007_050u,22-Jul-2020 20:06:30,22-Jul-2020 12:06:30,32.91208,-122.12822,083.3 080.0,083.3,080.0,494.000,498.103,,5.8003,,5.7977,,5.7990,34.2308,,34.2310,34.2330,,34.2346,34.2328,0.3973,,0.3974,0.4418,2.0917,,1.0523,0.6592,0.5505,17.276,17.5463,14.7362,90.961,,22.9171,18.8267,0.0321,,,,-99.0,,-99.0,-99.0,26.9751,,26.9771,,0.6364,85.2913,,7.519,,2.2824E+03,,1.2387E-01,,5.7578,5.7552,0.9573,,5.694,29.980,,,,,,,,,,,,
CalCOFI,2007SR,050,52,2007_050u,22-Jul-2020 20:06:31,22-Jul-2020 12:06:31,32.91208,-122.12822,083.3 080.0,083.3,080.0,493.000,497.093,,5.7933,,5.7929,,5.7931,34.2279,,34.2281,34.2289,,34.2305,34.2293,0.4010,,0.4013,0.4456,2.0916,,1.0521,0.6589,0.5523,17.439,17.7165,14.8990,90.958,,22.9100,18.9045,0.0329,,,,-99.0,,-99.0,-99.0,26.9736,,26.9745,,0.6361,85.2972,,7.519,,2.2840E+03,,1.2562E-01,,5.7509,5.7505,0.9573,,5.747,29.975,,,,,,,,,,,,
CalCOFI,2007SR,050,52,2007_050u,22-Jul-2020 20:06:32,22-Jul-2020 12:06:32,32.91208,-122.12822,083.3 080.0,083.3,080.0,492.000,496.084,,5.7994,,5.7992,,5.7993,34.2282,,34.2284,34.2297,,34.2313,34.2299,0.4036,,0.4040,0.4483,2.0900,,1.0483,0.6550,0.5517,17.551,17.8334,15.0108,90.887,,22.7419,18.8764,0.0322,,,,-99.0,,-99.0,-99.0,26.9731,,26.9743,,0.6358,85.3049,,7.519,,2.2787E+03,,1.2498E-01,,5.7571,5.7569,0.9573,,5.784,29.956,,,,,,,,,,,,
CalCOFI,2007SR,050,52,2007_050u,22-Jul-2020 20:06:33,22-Jul-2020 12:06:33,32.91208,-122.12822,083.3 080.0,083.3,080.0,491.000,495.074,,5.8188,,5.8188,,5.8188,34.2264,,34.2266,34.2277,,34.2293,34.2280,0.4076,,0.4082,0.4524,2.0830,,1.0315,0.6380,0.5452,17.727,18.0171,15.1866,90.586,,22.0292,18.6079,0.0324,,,,-99.0,,-99.0,-99.0,26.9693,,26.9703,,0.6362,85.2961,,7.519,,2.2822E+03,,1.2135E-01,,5.7765,5.7765,0.9573,,5.845,29.870,,,,,,,,,,,,
CalCOFI,2007SR,050,52,2007_050u,22-Jul-2020 20:06:34,22-Jul-2020 12:06:34,32.91208,-122.12822,083.3 080.0,083.3,080.0,490.000,494.065,,5.8282,,5.8282,,5.8282,34.2247,,34.2249,34.2262,,34.2278,34.2264,0.4142,,0.4151,0.4593,2.0804,,1.0253,0.6317,0.5455,18.013,18.3157,15.4722,90.470,,21.7546,18.6134,0.0328,,,,-99.0,,-99.0,-99.0,26.9668,,26.9680,,0.6359,85.3012,,7.519,,2.2825E+03,,1.2843E-01,,5.7859,5.7859,0.9573,,5.941,29.838,,,,,,,,,,,,
CalCOFI,2007SR,050,52,2007_050u,22-Jul-2020 20:06:35,22-Jul-2020 12:06:35,32.91208,-122.12822,083.3 080.0,083.3,080.0,489.000,493.055,,5.8284,,5.8285,,5.8285,34.2234,,34.2236,34.2246,,34.2262,34.2249,0.4236,,0.4249,0.4691,2.0838,,1.0335,0.6400,0.5546,18.420,18.7405,15.8786,90.617,,22.1026,18.9906,0.0325,,,,-99.0,,-99.0,-99.0,26.9657,,26.9667,,0.6357,85.3068,,7.519,,2.2846E+03,,1.2555E-01,,5.7862,5.7863,0.9573,,6.075,29.886,,,,,,,,,,,,
CalCOFI,2007SR,050,52,2007_050u,22-Jul-2020 20:06:36,22-Jul-2020 12:06:36,32.91208,-122.12822,083.3 080.0,083.3,080.0,488.000,492.046,,5.8448,,5.8415,,5.8432,34.2210,,34.2212,34.2226,,34.2242,34.2227,0.4334,,0.4352,0.4792,2.0817,,1.0284,0.6349,0.5571,18.847,19.1863,16.3050,90.526,,21.8872,19.0961,0.0333,,,,-99.0,,-99.0,-99.0,26.9618,,26.9635,,0.6364,85.2909,,7.519,,2.2853E+03,,1.1797E-01,,5.8026,5.7994,0.9573,,6.218,29.865,,,,,,,,,,,,
CalCOFI,2007SR,050,52,2007_050u,22-Jul-2020 20:06:37,22-Jul-2020 12:06:37,32.91208,-122.12822,083.3 080.0,083.3,080.0,487.000,491.036,,5.8796,,5.8788,,5.8792,34.2167,,34.2169,34.2183,,34.2199,34.2184,0.4317,,0.4334,0.4775,2.0804,,1.0253,0.6317,0.5546,18.774,19.1101,16.2321,90.473,,21.7617,18.9969,0.0326,,,,-99.0,,-99.0,-99.0,26.9540,,26.9554,,0.6356,85.3092,,7.520,,2.2809E+03,,1.1849E-01,,5.8374,5.8366,0.9573,,6.199,29.872,,,,,,,,,,,,
CalCOFI,2007SR,050,52,2007_050u,22-Jul-2020 20:06:38,22-Jul-2020 12:06:38,32.91208,-122.12822,083.3 080.0,083.3,080.0,486.000,490.027,,5.8841,,5.8832,,5.8837,34.2159,,34.2161,34.2176,,34.2192,34.2177,0.4251,,0.4265,0.4706,2.0799,,1.0241,0.6305,0.5506,18.485,18.8084,15.9435,90.451,,21.7096,18.8266,0.0325,,,,-99.0,,-99.0,-99.0,26.9528,,26.9543,,0.6356,85.3076,,7.520,,2.2818E+03,,1.1772E-01,,5.8419,5.8411,0.9573,,6.104,29.868,,,,,,,,,,,,
CalCOFI,2007SR,050,52,2007_050u,22-Jul-2020 20:06:39,22-Jul-2020 12:06:39,32.91208,-122.12822,083.3 080.0,083.3,080.0,485.000,489.017,,5.8796,,5.8818,,5.8807,34.2163,,34.2165,34.2173,,34.2189,34.2177,0.4235,,0.4248,0.4690,2.0797,,1.0237,0.6300,0.5495,18.416,18.7364,15.8746,90.443,,21.6907,18.7827,0.0326,,,,-99.0,,-99.0,-99.0,26.9538,,26.9543,,0.6361,85.2967,,7.521,,2.2783E+03,,1.1618E-01,,5.8375,5.8398,0.9573,,6.080,29.864,,,,,,,,,,,,
CalCOFI,2007SR,050,52,2007_050u,22-Jul-2020 20:06:40,22-Jul-2020 12:06:40,32.91208,-122.12822,083.3 080.0,083.3,080.0,484.000,488.008,,5.8708,,5.8705,,5.8707,34.2177,,34.2179,34.2188,,34.2204,34.2192,0.4231,,0.4244,0.4685,2.0801,,1.0246,0.6310,0.5498,18.400,18.7197,15.8586,90.457,,21.7238,18.7912,0.0326,,,,-99.0,,-99.0,-99.0,26.9559,,26.9568,,0.6357,85.3072,,7.522,,2.2843E+03,,1.1318E-01,,5.8289,5.8286,0.9573,,6.074,29.861,,,,,,,,,,,,
CalCOFI,2007SR,050,52,2007_050u,22-Jul-2020 20:06:41,22-Jul-2020 12:06:41,32.91208,-122.12822,083.3 080.0,083.3,080.0,483.000,486.999,,5.8701,,5.8683,,5.8692,34.2175,,34.2177,34.2188,,34.2204,34.2191,0.4261,,0.4275,0.4717,2.0799,,1.0241,0.6305,0.5511,18.528,18.8533,15.9864,90.451,,21.7096,18.8480,0.0326,,,,-99.0,,-99.0,-99.0,26.9558,,26.9571,,0.6353,85.3147,,7.522,,2.2851E+03,,1.1712E-01,,5.8283,5.8265,0.9573,,6.116,29.858,,,,,,,,,,,,
CalCOFI,2007SR,050,52,2007_050u,22-Jul-2020 20:06:42,22-Jul-2020 12:06:42,32.91208,-122.12822,083.3 080.0,083.3,080.0,482.000,485.989,,5.8668,,5.8667,,5.8668,34.2183,,34.2185,34.2197,,34.2213,34.2199,0.4335,,0.4353,0.4793,2.0797,,1.0237,0.6300,0.5547,18.851,19.1905,16.3090,90.442,,21.6883,18.9987,0.0327,,,,-99.0,,-99.0,-99.0,26.9569,,26.9580,,0.6353,85.3148,,7.523,,2.2798E+03,,1.2234E-01,,5.8251,5.8250,0.9573,,6.223,29.854,,,,,,,,,,,,
CalCOFI,2007SR,050,52,2007_050u,22-Jul-2020 20:06:43,22-Jul-2020 12:06:43,32.91208,-122.12822,083.3 080.0,083.3,080.0,481.000,484.980,,5.8712,,5.8711,,5.8712,34.2176,,34.2178,34.2191,,34.2207,34.2193,0.4355,,0.4374,0.4814,2.0792,,1.0225,0.6288,0.5551,18.940,19.2834,16.3979,90.420,,21.6362,19.0171,0.0326,,,,-99.0,,-99.0,-99.0,26.9558,,26.9569,,0.6353,85.3148,,7.524,,2.2851E+03,,1.2229E-01,,5.8295,5.8295,0.9573,,6.252,29.850,,,,,,,,,,,,
CalCOFI,2007SR,050,52,2007_050u,22-Jul-2020 20:06:44,22-Jul-2020 12:06:44,32.91208,-122.12822,083.3 080.0,083.3,080.0,480.000,483.970,,5.8906,,5.8919,,5.8913,34.2163,,34.2165,34.2177,,34.2193,34.2179,0.4343,,0.4361,0.4802,2.0778,,1.0191,0.6254,0.5528,18.889,19.2301,16.3469,90.360,,21.4941,18.9205,0.0327,,,,-99.0,,-99.0,-99.0,26.9523,,26.9532,,0.6353,85.3148,,7.524,,2.2897E+03,,1.2489E-01,,5.8490,5.8503,0.9573,,6.238,29.844,,,,,,,,,,,,
CalCOFI,2007SR,050,52,2007_050u,22-Jul-2020 20:06:45,22-Jul-2020 12:06:45,32.91208,-122.12822,083.3 080.0,083.3,080.0,479.000,482.961,,5.9021,,5.9023,,5.9022,34.2140,,34.2142,34.2154,,34.2170,34.2156,0.4410,,0.4431,0.4871,2.0770,,1.0172,0.6234,0.5553,19.180,19.5339,16.6375,90.325,,21.4113,19.0244,0.0325,,,,-99.0,,-99.0,-99.0,26.9491,,26.9502,,0.6353,85.3148,,7.524,,2.2912E+03,,1.2344E-01,,5.8605,5.8607,0.9573,,6.336,29.839,,,,,,,,,,,,
CalCOFI,2007SR,050,52,2007_050u,22-Jul-2020 20:06:47,22-Jul-2020 12:06:47,32.91208,-122.12822,083.3 080.0,083.3,080.0,478.000,481.951,,5.9030,,5.9032,,5.9031,34.2137,,34.2139,34.2151,,34.2167,34.2153,0.4427,,0.4449,0.4889,2.0767,,1.0165,0.6227,0.5558,19.254,19.6112,16.7114,90.311,,21.3781,19.0448,0.0324,,,,-99.0,,-99.0,-99.0,26.9487,,26.9497,,0.6356,85.3091,,7.524,,2.2922E+03,,1.2198E-01,,5.8615,5.8617,0.9573,,6.361,29.835,,,,,,,,,,,,
CalCOFI,2007SR,050,52,2007_050u,22-Jul-2020 20:06:48,22-Jul-2020 12:06:48,32.91208,-122.12822,083.3 080.0,083.3,080.0,477.000,480.942,,5.9044,,5.9047,,5.9046,34.2131,,34.2133,34.2144,,34.2160,34.2147,0.4409,,0.4430,0.4870,2.0763,,1.0156,0.6217,0.5544,19.174,19.5276,16.6315,90.296,,21.3426,18.9871,0.0332,,,,-99.0,,-99.0,-99.0,26.9480,,26.9490,,0.6356,85.3078,,7.524,,2.2908E+03,,1.1798E-01,,5.8630,5.8633,0.9573,,6.335,29.831,,,,,,,,,,,,
CalCOFI,2007SR,050,52,2007_050u,22-Jul-2020 20:06:49,22-Jul-2020 12:06:49,32.91208,-122.12822,083.3 080.0,083.3,080.0,476.000,479.932,,5.9059,,5.9060,,5.9060,34.2125,,34.2127,34.2139,,34.2155,34.2141,0.4473,,0.4497,0.4937,2.0760,,1.0148,0.6210,0.5574,19.451,19.8168,16.9081,90.281,,21.3071,19.1076,0.0330,,,,-99.0,,-99.0,-99.0,26.9474,,26.9484,,0.6353,85.3148,,7.524,,2.2813E+03,,1.1816E-01,,5.8646,5.8647,0.9573,,6.426,29.827,,,,,,,,,,,,
CalCOFI,2007SR,050,52,2007_050u,22-Jul-2020 20:06:50,22-Jul-2020 12:06:50,32.91208,-122.12822,083.3 080.0,083.3,080.0,475.000,478.923,,5.9068,,5.9067,,5.9068,34.2121,,34.2123,34.2136,,34.2152,34.2138,0.4489,,0.4514,0.4953,2.0757,,1.0141,0.6203,0.5578,19.520,19.8888,16.9770,90.268,,21.2763,19.1267,0.0322,,,,-99.0,,-99.0,-99.0,26.9470,,26.9481,,0.6366,85.2879,,7.524,,2.2887E+03,,1.2176E-01,,5.8656,5.8655,0.9573,,6.449,29.823,,,,,,,,,,,,
CalCOFI,2007SR,050,52,2007_050u,22-Jul-2020 20:06:51,22-Jul-2020 12:06:51,32.91208,-122.12822,083.3 080.0,083.3,080.0,474.000,477.914,,5.9077,,5.9078,,5.9078,34.2117,,34.2119,34.2130,,34.2146,34.2133,0.4495,,0.4520,0.4959,2.0754,,1.0134,0.6195,0.5577,19.546,19.9160,17.0030,90.254,,21.2432,19.1231,0.0328,,,,-99.0,,-99.0,-99.0,26.9465,,26.9475,,0.6353,85.3138,,7.524,,2.2760E+03,,1.1495E-01,,5.8666,5.8667,0.9573,,6.458,29.819,,,,,,,,,,,,
CalCOFI,2007SR,050,52,2007_050u,22-Jul-2020 20:06:51,22-Jul-2020 12:06:51,32.91208,-122.12822,083.3 080.0,083.3,080.0,473.000,476.904,,5.9096,,5.9097,,5.9097,34.2111,,34.2113,34.2124,,34.2140,34.2127,0.4533,,0.4560,0.4999,2.0750,,1.0124,0.6186,0.5593,19.714,20.0913,17.1708,90.238,,21.2053,19.1881,0.0330,,,,-99.0,,-99.0,-99.0,26.9458,,26.9468,,0.6353,85.3148,,7.524,,2.2746E+03,,1.1489E-01,,5.8686,5.8687,0.9573,,6.513,29.815,,,,,,,,,,,,
CalCOFI,2007SR,050,52,2007_050u,22-Jul-2020 20:06:52,22-Jul-2020 12:06:52,32.91208,-122.12822,083.3 080.0,083.3,080.0,472.000,475.895,,5.9149,,5.9151,,5.9150,34.2096,,34.2098,34.2110,,34.2126,34.2112,0.4580,,0.4609,0.5048,2.0745,,1.0113,0.6173,0.5611,19.919,20.3053,17.3755,90.215,,21.1508,19.2632,0.0323,,,,-99.0,,-99.0,-99.0,26.9439,,26.9450,,0.6357,85.3068,,7.524,,2.2959E+03,,1.1822E-01,,5.8740,5.8742,0.9573,,6.582,29.810,,,,,,,,,,,,
CalCOFI,2007SR,050,52,2007_050u,22-Jul-2020 20:06:53,22-Jul-2020 12:06:53,32.91208,-122.12822,083.3 080.0,083.3,080.0,471.000,474.885,,5.9212,,5.9219,,5.9216,34.2097,,34.2099,34.2112,,34.2128,34.2114,0.4585,,0.4614,0.5053,2.0738,,1.0096,0.6156,0.5605,19.940,20.3273,17.3964,90.187,,21.0845,19.2405,0.0330,,,,-99.0,,-99.0,-99.0,26.9432,,26.9443,,0.6353,85.3148,,7.524,,2.2955E+03,,1.2022E-01,,5.8803,5.8810,0.9573,,6.590,29.806,,,,,,,,,,,,
CalCOFI,2007SR,050,52,2007_050u,22-Jul-2020 20:06:54,22-Jul-2020 12:06:54,32.91208,-122.12822,083.3 080.0,083.3,080.0,470.000,473.876,,5.9334,,5.9330,,5.9332,34.2099,,34.2101,34.2115,,34.2131,34.2116,0.4594,,0.4623,0.5062,2.0729,,1.0074,0.6135,0.5599,19.977,20.3659,17.4334,90.148,,20.9922,19.2128,0.0323,,,,-99.0,,-99.0,-99.0,26.9418,,26.9431,,0.6353,85.3139,,7.524,,2.2954E+03,,1.1160E-01,,5.8926,5.8921,0.9573,,6.604,29.801,,,,,,,,,,,,
CalCOFI,2007SR,050,52,2007_050u,22-Jul-2020 20:06:55,22-Jul-2020 12:06:55,32.91208,-122.12822,083.3 080.0,083.3,080.0,469.000,472.867,,5.9405,,5.9427,,5.9416,34.2090,,34.2092,34.2101,,34.2117,34.2105,0.4659,,0.4691,0.5130,2.0721,,1.0055,0.6115,0.5623,20.261,20.6624,17.7170,90.114,,20.9117,19.3144,0.0332,,,,-99.0,,-99.0,-99.0,26.9402,,26.9408,,0.6355,85.3104,,7.524,,2.2921E+03,,1.1159E-01,,5.8997,5.9019,0.9573,,6.699,29.796,,,,,,,,,,,,
CalCOFI,2007SR,050,52,2007_050u,22-Jul-2020 20:06:57,22-Jul-2020 12:06:57,32.91208,-122.12822,083.3 080.0,083.3,080.0,468.000,471.857,,5.9476,,5.9503,,5.9490,34.2068,,34.2070,34.2081,,34.2097,34.2084,0.4743,,0.4779,0.5217,2.0715,,1.0041,0.6101,0.5659,20.626,21.0434,18.0815,90.086,,20.8454,19.4635,0.0330,,,,-99.0,,-99.0,-99.0,26.9375,,26.9382,,0.6359,85.3022,,7.524,,2.2892E+03,,1.0702E-01,,5.9069,5.9096,0.9573,,6.821,29.792,,,,,,,,,,,,
CalCOFI,2007SR,050,52,2007_050u,22-Jul-2020 20:06:58,22-Jul-2020 12:06:58,32.91208,-122.12822,083.3 080.0,083.3,080.0,467.000,470.848,,5.9573,,5.9580,,5.9577,34.2050,,34.2052,34.2063,,34.2079,34.2066,0.4816,,0.4855,0.5293,2.0709,,1.0027,0.6086,0.5690,20.945,21.3764,18.4000,90.060,,20.7839,19.5920,0.0326,,,,-99.0,,-99.0,-99.0,26.9349,,26.9359,,0.6357,85.3057,,7.524,,2.2763E+03,,1.1138E-01,,5.9166,5.9173,0.9573,,6.927,29.788,,,,,,,,,,,,
CalCOFI,2007SR,050,52,2007_050u,22-Jul-2020 20:06:59,22-Jul-2020 12:06:59,32.91208,-122.12822,083.3 080.0,083.3,080.0,466.000,469.838,,5.9615,,5.9612,,5.9614,34.2037,,34.2039,34.2051,,34.2067,34.2053,0.4895,,0.4938,0.5375,2.0791,,1.0222,0.6285,0.5830,21.287,21.7334,18.7415,90.417,,21.6291,20.1853,0.0325,,,,-99.0,,-99.0,-99.0,26.9333,,26.9345,,0.6353,85.3149,,7.524,,2.2979E+03,,1.1694E-01,,5.9209,5.9207,0.9573,,7.041,29.908,,,,,,,,,,,,
CalCOFI,2007SR,050,52,2007_050u,22-Jul-2020 20:07:00,22-Jul-2020 12:07:00,32.91208,-122.12822,083.3 080.0,083.3,080.0,465.000,468.829,,5.9635,,5.9633,,5.9634,34.2003,,34.2005,34.2015,,34.2031,34.2018,0.4983,,0.5030,0.5466,2.0757,,1.0141,0.6203,0.5835,21.670,22.1332,19.1240,90.269,,21.2787,20.2014,0.0317,,,,-99.0,,-99.0,-99.0,26.9304,,26.9314,,0.6357,85.3072,,7.525,,2.3039E+03,,1.1198E-01,,5.9230,5.9228,0.9573,,7.168,29.860,,,,,,,,,,,,